Weather History for St. Joseph, MO

Change the Weather History Date:

Saturday, October 13, 2012

  Actual Average Record
Temperature  
Mean Temperature 65 °F 56 °F  
Max Temperature 72 °F 68 °F 90 °F (1975)
Min Temperature 57 °F 44 °F 24 °F (2006)
Degree Days  
Heating Degree Days 0 10  
Month to date heating degree days 170 105  
Since 1 July heating degree days 280 185  
Cooling Degree Days 0 1  
Month to date cooling degree days 1 18  
Year to date cooling degree days 1532 1217  
Growing Degree Days 14 (Base 50)    
Moisture  
Dew Point 62 °F    
Average Humidity 86    
Maximum Humidity 93    
Minimum Humidity 79    
Precipitation  
Precipitation 0.66 in 0.10 in 1.94 in (1981)
Month to date precipitation 0.67 1.20  
Year to date precipitation 19.54 30.92  
Sea Level Pressure  
Sea Level Pressure 29.82 in    
Wind  
Wind Speed 12 mph (South)    
Max Wind Speed 24 mph    
Max Gust Speed 31 mph    
Visibility 7 miles    
Events Rain , Thunderstorm    
T = Trace of Precipitation, MM = Missing Value Source: NWS Daily Summary

Daily Weather History Graph

Daily Weather History Graph

Search for Another Location

Airport:

Trip Planner

Search our weather history database for the weather conditions in past years. The results will help you decide how hot, cold, wet, or windy it might be!

Date:

Astronomy

Oct. 13, 2012 Rise Set
Actual Time 7:28 AM CDT 6:42 PM CDT
Civil Twilight 7:01 AM CDT 7:09 PM CDT
Nautical Twilight 6:29 AM CDT 7:40 PM CDT
Astronomical Twilight 5:58 AM CDT 8:12 PM CDT
Moon 5:19 AM CDT (10/13) 5:26 PM CDT (10/13)
Length of Visible Light 12h 08m
Length of Day
11h 14m
Waning Crescent, 5% of the Moon is Illuminated
Oct 13
Waning Crescent
Oct 15
New
Oct 21
First Quarter
Oct 29
Full
Nov 6
Last Quarter

Hourly Weather History & Observations

Time (CDT) Temp. Dew Point Humidity Pressure Visibility Wind Dir Wind Speed Gust Speed Precip Events Conditions
12:39 AM 57.2 °F 50.0 °F 77% 30.05 in 10.0 mi SSE 10.4 mph - N/A   Overcast
12:53 AM 57.9 °F 51.1 °F 78% 30.04 in 10.0 mi SSE 10.4 mph - N/A   Overcast
1:53 AM 57.9 °F 53.1 °F 84% 29.98 in 9.0 mi SSE 10.4 mph - N/A   Overcast
2:08 AM 57.2 °F 53.6 °F 88% 29.98 in 3.0 mi SSE 9.2 mph - 0.06 in Rain Light Rain
2:45 AM 57.2 °F 55.4 °F 94% 29.97 in 8.0 mi South 10.4 mph - 0.06 in   Overcast
2:53 AM 57.9 °F 55.0 °F 90% 29.96 in 8.0 mi South 9.2 mph - 0.06 in   Overcast
3:35 AM 57.2 °F 55.4 °F 94% 29.94 in 6.0 mi SSE 9.2 mph - 0.00 in   Overcast
3:42 AM 60.8 °F 57.2 °F 88% 29.93 in 7.0 mi South 9.2 mph - 0.00 in   Overcast
3:53 AM 60.1 °F 57.0 °F 90% 29.93 in 8.0 mi South 11.5 mph - 0.00 in   Overcast
4:53 AM 62.1 °F 60.1 °F 93% 29.93 in 6.0 mi South 9.2 mph - N/A   Overcast
5:53 AM 63.0 °F 61.0 °F 93% 29.91 in 4.0 mi South 13.8 mph 21.9 mph 0.02 in Rain Light Rain
6:53 AM 64.0 °F 62.1 °F 93% 29.90 in 6.0 mi South 12.7 mph - 0.01 in   Overcast
7:53 AM 64.9 °F 63.0 °F 93% 29.88 in 3.0 mi South 12.7 mph - N/A   Overcast
8:02 AM 64.4 °F 62.6 °F 94% 29.89 in 2.0 mi South 13.8 mph - 0.00 in   Overcast
8:53 AM 66.0 °F 63.0 °F 90% 29.88 in 1.8 mi SSW 11.5 mph - 0.00 in Rain Light Rain
9:38 AM 66.2 °F 64.4 °F 94% 29.90 in 2.0 mi South 9.2 mph - 0.13 in Rain , Thunderstorm Thunderstorms and Rain
9:53 AM 64.9 °F 64.0 °F 97% 29.87 in 2.5 mi South 10.4 mph - 0.18 in Rain , Thunderstorm Rain
9:55 AM 64.4 °F 64.4 °F 100% 29.88 in 3.0 mi South 12.7 mph - 0.00 in Rain Rain
10:53 AM 66.0 °F 63.0 °F 90% 29.88 in 3.0 mi South 18.4 mph - 0.04 in Rain Rain
11:53 AM 68.0 °F 64.0 °F 87% 29.77 in 8.0 mi SSE 17.3 mph - 0.05 in   Clear
12:53 PM 71.1 °F 64.9 °F 81% 29.79 in 10.0 mi South 19.6 mph 31.1 mph N/A   Scattered Clouds
1:01 PM 69.8 °F 64.4 °F 83% 29.80 in 10.0 mi South 21.9 mph 28.8 mph N/A   Mostly Cloudy
1:53 PM 70.0 °F 64.0 °F 81% 29.76 in 10.0 mi South 16.1 mph 24.2 mph N/A   Overcast
3:03 PM 69.8 °F 64.4 °F 83% 29.73 in 10.0 mi South 15.0 mph - N/A   Overcast
3:53 PM 69.1 °F 64.0 °F 84% 29.72 in 10.0 mi South 19.6 mph 24.2 mph N/A   Overcast
4:00 PM 69.8 °F 64.4 °F 83% 29.74 in 10.0 mi South 13.8 mph 24.2 mph N/A Thunderstorm Overcast
4:09 PM 68.0 °F 64.4 °F 88% 29.74 in 2.5 mi South 19.6 mph 27.6 mph 0.07 in Rain , Thunderstorm Heavy Thunderstorms and Rain
4:17 PM 66.2 °F 64.4 °F 94% 29.74 in 3.0 mi South 16.1 mph 27.6 mph 0.10 in Rain , Thunderstorm Thunderstorms and Rain
4:22 PM 66.2 °F 64.4 °F 94% 29.73 in 2.5 mi South 13.8 mph 24.2 mph 0.12 in Rain , Thunderstorm Thunderstorms and Rain
4:31 PM 66.2 °F 64.4 °F 94% 29.72 in 4.0 mi South 10.4 mph 21.9 mph 0.14 in Rain , Thunderstorm Light Thunderstorms and Rain
4:53 PM 68.0 °F 64.9 °F 90% 29.72 in 10.0 mi South 10.4 mph - 0.15 in   Overcast
5:07 PM 68.0 °F 64.4 °F 88% 29.73 in 10.0 mi South 11.5 mph - 0.00 in Rain Light Rain
5:53 PM 68.0 °F 64.9 °F 90% 29.69 in 6.0 mi SSE 8.1 mph - 0.03 in Rain Light Rain
6:08 PM 68.0 °F 64.4 °F 88% 29.70 in 10.0 mi South 9.2 mph - 0.00 in   Overcast
6:29 PM 68.0 °F 64.4 °F 88% 29.69 in 10.0 mi SSE 9.2 mph - 0.00 in   Overcast
7:53 PM 68.0 °F 64.9 °F 90% 29.63 in 8.0 mi SSE 11.5 mph - N/A   Overcast
8:53 PM 69.1 °F 64.9 °F 87% 29.63 in 7.0 mi SSE 15.0 mph 21.9 mph N/A   Overcast
9:53 PM 68.0 °F 64.9 °F 90% 29.62 in 7.0 mi SE 5.8 mph - N/A   Mostly Cloudy
11:00 PM 64.4 °F 60.8 °F 88% 29.63 in 10.0 mi North 5.8 mph - N/A   Overcast